Content
SEND FEEDBACK

Daily
Averages
Monthly
Summary
United States of America

STATEN ISLAND, NEW YORK


Home > North America > United States > New York
Elevation: 152 feet     Latitude: 40 35N     Longitude: 074 09W

WEATHER
 
SELECT A DAY
Number of Records: 189,619;   Date Range: 1/1/95 - 7/27/14
 
SHARE

PRINT THIS DATA

[ ← Previous Day ]
WEATHER ALMANAC - FEBRUARY 10, 2013
[ Next Day → ]
[ °C ]   °F
Weather ElementAverageHighLow
Temperature27 °F35.1 °F (2:51 pm)16 °F (5:51 am)
Dewpoint12.2 °F21.9 °F (11:51 pm)7 °F (1:51 am)
Humidity54.9 %71 % (5:51 am)37 % (3:51 pm)
Barometer30.41 in30.49 in (10:51 am)30.34 in (10:51 pm)
Wind Speed4.1 mph10.4 mph (2:51 am)
Weather ElementAverage
Visibility10 mi
Wind DirectionSSW (187.4 °)

Weather ElementTotal
Precipitation---
Heating Degree Days39.5 (Base 65)
Averaged from 23 records on February 10, 2013
WEATHER CONDITIONS BREAKOUT
WIND DIRECTION BREAKOUT
WEATHER BY HOUR - FEBRUARY 10, 2013
[ °C ]   °F
Local TimeTemperatureDewpointHumidityBarometerVisibilityWind DirectionWind SpeedGust SpeedPrecipitationEventsConditions
1:51 AM19.0 °F7.0 °F59 %30.37 in10.0 miNW (310°)9.2 mphClear
2:51 AM19.0 °F7.0 °F59 %30.38 in10.0 miNW (310°)10.4 mphClear
3:51 AM19.0 °F7.0 °F59 %30.38 in10.0 miNNW (330°)6.9 mphClear
4:51 AM17.1 °F8.1 °F68 %30.39 in10.0 miWSW (250°)4.6 mphClear
5:51 AM16.0 °F8.1 °F71 %30.41 in10.0 miWNW (290°)5.8 mphClear
6:51 AM16.0 °F7.0 °F68 %30.42 in10.0 miNorth (350°)4.6 mphPartly Cloudy
7:51 AM18.0 °F8.1 °F65 %30.45 in10.0 miCalmPartly Cloudy
8:51 AM23.0 °F8.1 °F53 %30.47 in10.0 miNNW (330°)5.8 mphPartly Cloudy
9:51 AM26.1 °F9.0 °F49 %30.48 in10.0 miNorth (360°)3.5 mphScattered Clouds
10:51 AM27.0 °F9.0 °F47 %30.49 in10.0 miCalmScattered Clouds
11:51 AM28.9 °F10.0 °F45 %30.47 in10.0 miSSW (200°)3.5 mphMostly Cloudy
12:51 PM32.0 °F9.0 °F38 %30.43 in10.0 miCalmMostly Cloudy
1:51 PM34.0 °F12.9 °F42 %30.41 in10.0 miCalmMostly Cloudy
2:51 PM35.1 °F14.0 °F42 %30.41 in10.0 miSSW (210°)3.5 mphMostly Cloudy
3:51 PM34.0 °F10.0 °F37 %30.39 in10.0 miSouth (190°)5.8 mphMostly Cloudy
4:51 PM34.0 °F10.9 °F38 %30.38 in10.0 miSouth (190°)4.6 mphMostly Cloudy
5:51 PM34.0 °F15.1 °F46 %30.39 in10.0 miSSE (160°)3.5 mphMostly Cloudy
6:51 PM32.0 °F18.0 °F56 %30.39 in10.0 miSouth (170°)4.6 mphMostly Cloudy
7:51 PM32.0 °F19.0 °F59 %30.39 in10.0 miSSE (150°)5.8 mphOvercast
8:51 PM32.0 °F19.9 °F61 %30.38 in10.0 miCalmOvercast
9:51 PM30.9 °F21.0 °F67 %30.37 in10.0 miSSE (160°)3.5 mphOvercast
10:51 PM30.9 °F21.0 °F67 %30.34 in10.0 miSouth (180°)4.6 mphOvercast
11:51 PM32.0 °F21.9 °F66 %30.34 in10.0 miSouth (170°)3.5 mphOvercast
Hourly data recorded from KEWR, located miles away from Staten Island, New York







STORIES FROM OUR PARTNERS